Date String (YYYY-MM-DD hh:mm:ss) UTC,Instrument flags,Ambient pressure (hPa),Sample flow (lpm),Bypass flow (lpm),Sample temperature (°C),Ambient temperature (°C),ASC tube jacket temperature (°C),LED temperature (°C),Box temperature (°C),Sample RH (%),Span deviation,Mass concentration (μg/m³),Mass concentration (μg/m³),Mass concentration (μg/m³)
DateTimeUTC,F1_M11,P_M11,Q1_M11,Q2_M11,T1_M11,T2_M11,T3_M11,T4_M11,T5_M11,U1_M11,ZSPAN_M11,X0_M11,X2_M11,X1_M11
2022-07-08 00:00:00,,0830.4,5.00,0.00,29.3,27.8,00.0,38.0,31.3,29.0,0000.0,0008.16,0002.82,0001.82
2022-07-08 00:01:00,,0830.5,4.99,0.00,29.3,27.9,00.0,38.0,31.3,29.3,0000.0,0008.14,0002.82,0001.82
2022-07-08 00:02:00,,0830.5,5.00,0.00,29.4,28.1,00.0,38.1,31.4,29.2,0000.0,0008.29,0002.78,0001.83
2022-07-08 00:03:00,,0830.5,5.00,0.00,29.4,28.3,00.0,38.1,31.4,29.2,0000.0,0008.26,0002.74,0001.84
2022-07-08 00:04:00,,0830.5,5.00,0.00,29.4,28.0,00.0,38.1,31.4,29.6,0000.0,0008.23,0002.73,0001.83
2022-07-08 00:05:00,,0830.5,5.01,0.00,29.4,27.4,00.0,38.0,31.3,29.8,0000.0,0008.28,0002.69,0001.84
2022-07-08 00:06:00,,0830.5,5.01,0.00,29.4,27.1,00.0,38.0,31.3,29.7,0000.0,0008.02,0002.69,0001.85
2022-07-08 00:07:00,,0830.5,5.01,0.00,29.4,27.1,00.0,38.0,31.2,30.0,0000.0,0008.02,0002.76,0001.88
2022-07-08 00:08:00,,0830.5,5.00,0.00,29.3,27.3,00.0,38.0,31.1,30.1,0000.0,0007.68,0002.86,0001.90
2022-07-08 00:09:00,,0830.5,5.00,0.00,29.3,27.5,00.0,38.0,31.2,30.1,0000.0,0007.36,0002.91,0001.92
2022-07-08 00:10:00,,0830.4,5.00,0.00,29.3,27.7,00.0,38.0,31.3,30.0,0000.0,0007.50,0002.96,0001.93
2022-07-08 00:11:00,,0830.5,5.00,0.00,29.3,27.9,00.0,38.0,31.3,30.2,0000.0,0007.56,0003.02,0001.95
2022-07-08 00:12:00,,0830.5,4.99,0.00,29.4,28.1,00.0,38.0,31.4,30.2,0000.0,0008.09,0003.05,0001.98
2022-07-08 00:13:00,,0830.4,4.99,0.00,29.4,28.3,00.0,38.1,31.5,30.0,0000.0,0008.44,0003.14,0002.00
2022-07-08 00:14:00,,0830.5,5.01,0.00,29.5,28.3,00.0,38.1,31.5,29.9,0000.0,0008.47,0003.18,0002.03
2022-07-08 00:15:00,,0830.5,5.01,0.00,29.5,27.9,00.0,38.0,31.4,29.8,0000.0,0008.66,0003.18,0002.03
2022-07-08 00:16:00,,0830.5,4.99,0.00,29.4,27.2,00.0,38.0,31.3,29.7,0000.0,0009.01,0003.22,0002.04
2022-07-08 00:17:00,,0830.5,5.00,0.00,29.4,27.0,00.0,38.0,31.2,30.1,0000.0,0008.84,0003.23,0002.06
2022-07-08 00:18:00,,0830.5,5.00,0.00,29.3,27.0,00.0,38.0,31.1,30.0,0000.0,0008.92,0003.24,0002.07
2022-07-08 00:19:00,,0830.5,5.00,0.00,29.3,27.2,00.0,38.0,31.1,30.4,0000.0,0008.95,0003.24,0002.07
2022-07-08 00:20:00,,0830.5,5.00,0.00,29.3,27.4,00.0,38.0,31.2,30.8,0000.0,0009.05,0003.28,0002.09
2022-07-08 00:21:00,,0830.5,5.00,0.00,29.3,27.6,00.0,38.0,31.2,31.2,0000.0,0009.73,0003.30,0002.10
2022-07-08 00:22:00,,0830.5,5.01,0.00,29.3,27.8,00.0,38.0,31.3,30.2,0000.0,0009.78,0003.30,0002.10
2022-07-08 00:23:00,,0830.5,5.01,0.00,29.3,28.0,00.0,38.0,31.3,30.9,0000.0,0010.08,0003.31,0002.09
2022-07-08 00:24:00,,0830.4,5.00,0.00,29.4,28.2,00.0,38.0,31.4,31.7,0000.0,0010.58,0003.26,0002.09
2022-07-08 00:25:00,,0830.4,4.99,0.00,29.4,28.3,00.0,38.1,31.5,32.5,0000.0,0011.06,0003.29,0002.09
2022-07-08 00:26:00,,0830.3,5.01,0.00,29.5,28.3,00.0,38.1,31.5,32.6,0000.0,0011.21,0003.33,0002.12
2022-07-08 00:27:00,,0830.4,5.00,0.00,29.5,27.7,00.0,38.0,31.4,32.5,0000.0,0011.64,0003.37,0002.14
2022-07-08 00:28:00,,0830.4,5.00,0.00,29.4,27.2,00.0,38.0,31.3,33.4,0000.0,0012.01,0003.41,0002.16
2022-07-08 00:29:00,,0830.4,4.99,0.00,29.4,27.0,00.0,38.0,31.2,32.6,0000.0,0012.31,0003.43,0002.17
2022-07-08 00:30:00,,0830.3,5.00,0.00,29.3,27.1,00.0,38.0,31.1,32.6,0000.0,0012.49,0003.43,0002.18
2022-07-08 00:31:00,,0830.3,5.00,0.00,29.3,27.3,00.0,38.0,31.1,32.6,0000.0,0013.61,0003.39,0002.17
2022-07-08 00:32:00,,0830.3,5.00,0.00,29.3,27.5,00.0,38.0,31.2,33.0,0000.0,0013.87,0003.40,0002.18
2022-07-08 00:33:00,,0830.2,5.00,0.00,29.3,27.7,00.0,38.0,31.2,33.0,0000.0,0014.24,0003.44,0002.20
2022-07-08 00:34:00,,0830.3,5.00,0.00,29.3,27.8,00.0,38.0,31.3,32.4,0000.0,0013.60,0003.43,0002.21
2022-07-08 00:35:00,,0830.2,5.00,0.00,29.3,28.0,00.0,38.0,31.4,32.9,0000.0,0012.63,0003.46,0002.22
2022-07-08 00:36:00,,0830.2,5.00,0.00,29.4,28.2,00.0,38.1,31.4,32.5,0000.0,0012.18,0003.48,0002.22
2022-07-08 00:37:00,,0830.3,5.01,0.00,29.4,28.3,00.0,38.1,31.5,32.3,0000.0,0012.59,0003.50,0002.20
2022-07-08 00:38:00,,0830.2,4.99,0.00,29.5,28.4,00.0,38.1,31.5,31.7,0000.0,0012.09,0003.50,0002.19
2022-07-08 00:39:00,,0830.2,5.01,0.00,29.5,27.9,00.0,38.1,31.5,31.6,0000.0,0011.60,0003.50,0002.17
2022-07-08 00:40:00,,0830.3,5.00,0.00,29.5,27.3,00.0,38.0,31.3,31.3,0000.0,0011.30,0003.49,0002.15
2022-07-08 00:41:00,,0830.2,5.00,0.00,29.4,27.1,00.0,38.0,31.3,31.3,0000.0,0011.11,0003.46,0002.15
2022-07-08 00:42:00,,0830.2,5.00,0.00,29.4,27.1,00.0,38.0,31.2,31.0,0000.0,0009.81,0003.46,0002.13
2022-07-08 00:43:00,,0830.3,5.00,0.00,29.3,27.3,00.0,38.0,31.2,31.4,0000.0,0009.13,0003.44,0002.11
2022-07-08 00:44:00,,0830.3,5.00,0.00,29.3,27.4,00.0,38.0,31.2,31.8,0000.0,0009.22,0003.41,0002.09
2022-07-08 00:45:00,,0830.3,5.00,0.00,29.3,27.6,00.0,38.0,31.2,31.4,0000.0,0009.53,0003.42,0002.08
2022-07-08 00:46:00,,0830.4,5.00,0.00,29.3,27.8,00.0,38.1,31.3,31.6,0000.0,0009.64,0003.43,0002.06
2022-07-08 00:47:00,,0830.4,5.00,0.00,29.4,28.0,00.0,38.1,31.4,31.3,0000.0,0010.38,0003.40,0002.04
2022-07-08 00:48:00,,0830.4,5.01,0.00,29.4,28.2,00.0,38.1,31.4,30.9,0000.0,0009.84,0003.35,0002.02
2022-07-08 00:49:00,,0830.4,5.00,0.00,29.4,28.3,00.0,38.1,31.5,30.8,0000.0,0010.04,0003.30,0002.00
2022-07-08 00:50:00,,0830.4,5.00,0.00,29.5,28.3,00.0,38.1,31.5,31.2,0000.0,0010.21,0003.29,0002.00
2022-07-08 00:51:00,,0830.4,5.00,0.00,29.5,27.7,00.0,38.0,31.4,31.4,0000.0,0010.25,0003.26,0001.99
2022-07-08 00:52:00,,0830.4,5.00,0.00,29.4,27.1,00.0,38.0,31.3,31.5,0000.0,0010.22,0003.24,0001.99
2022-07-08 00:53:00,,0830.4,5.01,0.00,29.4,27.0,00.0,38.0,31.2,32.0,0000.0,0010.26,0003.23,0002.00
2022-07-08 00:54:00,,0830.5,5.00,0.00,29.3,27.1,00.0,38.0,31.1,32.8,0000.0,0010.27,0003.24,0002.04
2022-07-08 00:55:00,,0830.4,5.01,0.00,29.3,27.2,00.0,38.0,31.1,32.8,0000.0,0009.96,0003.27,0002.06
2022-07-08 00:56:00,,0830.4,5.01,0.00,29.3,27.4,00.0,38.0,31.2,32.4,0000.0,0009.43,0003.27,0002.06
2022-07-08 00:57:00,,0830.4,5.00,0.00,29.3,27.6,00.0,38.0,31.2,31.5,0000.0,0009.34,0003.25,0002.07
2022-07-08 00:58:00,,0830.4,5.00,0.00,29.3,27.8,00.0,38.0,31.3,31.6,0000.0,0009.04,0003.30,0002.10
2022-07-08 00:59:00,,0830.4,5.00,0.00,29.3,28.0,00.0,38.0,31.3,31.7,0000.0,0008.95,0003.35,0002.12
